KAY872 FMCH-FIMP

Flight info

Callsign KAY872
Flight time 2h 31m
Altitude 39000
Route HAI UB790 OKDOP UA400 RASMA RASM2E
Aircraft A21N/M-SDE3FGHIRWY/LB1

Departure

Time 2026-04-23 11:15
Airport Prince Said Ibrahim International Airport (FMCH)

Arrival

Time 2026-04-23 13:46
Airport Sir Seewoosagur Ramgoolam International Airport (FIMP)
Time Latitude Longitude Altitude Speed Heading
2026-04-23 11:05 -11.53464 43.27431 96 ft 0 kts 98°
2026-04-23 11:08 -11.53466 43.27433 96 ft 1 kts 139°
2026-04-23 11:09 -11.53473 43.27433 97 ft 1 kts 198°
2026-04-23 11:09 -11.53490 43.27417 96 ft 5 kts 225°
2026-04-23 11:09 -11.53536 43.27381 94 ft 10 kts 197°
2026-04-23 11:09 -11.53617 43.27371 92 ft 13 kts 187°
2026-04-23 11:10 -11.53680 43.27329 90 ft 11 kts 256°
2026-04-23 11:10 -11.53671 43.27247 88 ft 11 kts 279°
2026-04-23 11:10 -11.53650 43.27164 88 ft 12 kts 300°
2026-04-23 11:10 -11.53576 43.27141 89 ft 11 kts 10°
2026-04-23 11:11 -11.53501 43.27156 91 ft 11 kts 12°
2026-04-23 11:11 -11.53385 43.27178 94 ft 21 kts 10°
2026-04-23 11:11 -11.53241 43.27206 96 ft 20 kts 11°
2026-04-23 11:11 -11.53104 43.27232 97 ft 19 kts 10°
2026-04-23 11:12 -11.52968 43.27256 97 ft 19 kts
2026-04-23 11:12 -11.52830 43.27278 96 ft 20 kts
2026-04-23 11:12 -11.52689 43.27303 94 ft 21 kts 10°
2026-04-23 11:12 -11.52540 43.27330 92 ft 22 kts 10°
2026-04-23 11:13 -11.52384 43.27357 89 ft 23 kts
2026-04-23 11:13 -11.52226 43.27385 86 ft 22 kts 16°
2026-04-23 11:13 -11.52117 43.27443 84 ft 15 kts 19°
2026-04-23 11:13 -11.52078 43.27423 83 ft 5 kts 253°
2026-04-23 11:14 -11.52097 43.27409 83 ft 0 kts 192°
2026-04-23 11:14 -11.52110 43.27407 84 ft 16 kts 189°
2026-04-23 11:14 -11.52535 43.27335 92 ft 107 kts 191°
2026-04-23 11:14 -11.53538 43.27164 141 ft 177 kts 191°
2026-04-23 11:15 -11.54818 43.26900 824 ft 197 kts 192°
2026-04-23 11:15 -11.56237 43.26586 1504 ft 225 kts 192°
2026-04-23 11:15 -11.57753 43.26226 2129 ft 225 kts 192°
2026-04-23 11:15 -11.59284 43.25843 2811 ft 228 kts 192°
2026-04-23 11:16 -11.60822 43.25440 3490 ft 231 kts 192°
2026-04-23 11:16 -11.62392 43.25015 4173 ft 235 kts 193°
2026-04-23 11:16 -11.63972 43.24587 4851 ft 238 kts 192°
2026-04-23 11:16 -11.65588 43.24140 5532 ft 242 kts 192°
2026-04-23 11:17 -11.67247 43.23681 6130 ft 257 kts 192°
2026-04-23 11:17 -11.69046 43.23181 6735 ft 275 kts 192°
2026-04-23 11:17 -11.70914 43.22665 7334 ft 282 kts 192°
2026-04-23 11:17 -11.72827 43.22132 7920 ft 286 kts 192°
2026-04-23 11:18 -11.74763 43.21721 8522 ft 285 kts 179°
2026-04-23 11:18 -11.76684 43.22086 9164 ft 281 kts 153°
2026-04-23 11:18 -11.78236 43.23277 9753 ft 280 kts 129°
2026-04-23 11:18 -11.79374 43.24880 10358 ft 282 kts 120°
2026-04-23 11:19 -11.80331 43.26642 10929 ft 285 kts 117°
2026-04-23 11:19 -11.81259 43.28436 11543 ft 289 kts 117°
2026-04-23 11:19 -11.82187 43.30252 12146 ft 293 kts 117°
2026-04-23 11:19 -11.83134 43.32111 12764 ft 295 kts 117°
2026-04-23 11:20 -11.84078 43.33967 13376 ft 298 kts 117°
2026-04-23 11:20 -11.85031 43.35845 13955 ft 300 kts 117°
2026-04-23 11:20 -11.85995 43.37751 14556 ft 303 kts 117°
2026-04-23 11:20 -11.86951 43.39642 15133 ft 306 kts 117°
2026-04-23 11:21 -11.87941 43.41599 15723 ft 309 kts 117°
2026-04-23 11:21 -11.88919 43.43533 16299 ft 312 kts 117°
2026-04-23 11:21 -11.89926 43.45524 16887 ft 315 kts 117°
2026-04-23 11:21 -11.90927 43.47504 17465 ft 318 kts 117°
2026-04-23 11:22 -11.91932 43.49494 18044 ft 320 kts 117°
2026-04-23 11:22 -11.92953 43.51517 18628 ft 322 kts 117°
2026-04-23 11:22 -11.93981 43.53552 19211 ft 324 kts 117°
2026-04-23 11:22 -11.95020 43.55610 19797 ft 325 kts 117°
2026-04-23 11:23 -11.96049 43.57646 20374 ft 327 kts 117°
2026-04-23 11:23 -11.97092 43.59716 20956 ft 328 kts 118°
2026-04-23 11:23 -11.98138 43.61787 21534 ft 330 kts 118°
2026-04-23 11:23 -11.99184 43.63861 22110 ft 331 kts 118°
2026-04-23 11:24 -12.00234 43.65944 22709 ft 333 kts 118°
2026-04-23 11:24 -12.01299 43.68057 23320 ft 334 kts 118°
2026-04-23 11:24 -12.02356 43.70151 23930 ft 334 kts 118°
2026-04-23 11:24 -12.03423 43.72270 24549 ft 334 kts 118°
2026-04-23 11:25 -12.04475 43.74359 25161 ft 334 kts 118°
2026-04-23 11:25 -12.05527 43.76449 25776 ft 333 kts 118°
2026-04-23 11:25 -12.06586 43.78554 26399 ft 332 kts 118°
2026-04-23 11:25 -12.07632 43.80632 27012 ft 330 kts 118°
2026-04-23 11:26 -12.08676 43.82710 27629 ft 328 kts 118°
2026-04-23 11:26 -12.09723 43.84795 28039 ft 332 kts 118°
2026-04-23 11:26 -12.10790 43.86915 28250 ft 343 kts 118°
2026-04-23 11:26 -12.11888 43.89096 28456 ft 353 kts 118°
2026-04-23 11:27 -12.13040 43.91385 28670 ft 363 kts 118°
2026-04-23 11:27 -12.14195 43.93682 28873 ft 373 kts 118°
2026-04-23 11:27 -12.15404 43.96086 29089 ft 382 kts 118°
2026-04-23 11:27 -12.16632 43.98525 29280 ft 392 kts 118°
2026-04-23 11:28 -12.17894 44.01034 29478 ft 401 kts 118°
2026-04-23 11:28 -12.19181 44.03594 29661 ft 409 kts 118°
2026-04-23 11:28 -12.20482 44.06181 29855 ft 417 kts 118°
2026-04-23 11:28 -12.21834 44.08870 30041 ft 426 kts 118°
2026-04-23 11:29 -12.23181 44.11552 30193 ft 433 kts 118°
2026-04-23 11:29 -12.24583 44.14344 30371 ft 441 kts 118°
2026-04-23 11:29 -12.25976 44.17119 30530 ft 448 kts 118°
2026-04-23 11:29 -12.27417 44.19992 30722 ft 453 kts 118°
2026-04-23 11:30 -12.28842 44.22836 31040 ft 455 kts 118°
2026-04-23 11:30 -12.30298 44.25743 31469 ft 455 kts 118°
2026-04-23 11:30 -12.31721 44.28587 31909 ft 455 kts 118°
2026-04-23 11:30 -12.33154 44.31453 32333 ft 454 kts 118°
2026-04-23 11:31 -12.34603 44.34352 32736 ft 454 kts 118°
2026-04-23 11:31 -12.36024 44.37193 33189 ft 453 kts 118°
2026-04-23 11:31 -12.37470 44.40088 33682 ft 452 kts 118°
2026-04-23 11:31 -12.38908 44.42967 34199 ft 449 kts 118°
2026-04-23 11:32 -12.40330 44.45813 34714 ft 446 kts 118°
2026-04-23 11:32 -12.41718 44.48595 35175 ft 444 kts 118°
2026-04-23 11:32 -12.43115 44.51397 35609 ft 442 kts 118°
2026-04-23 11:32 -12.44519 44.54208 36004 ft 441 kts 118°
2026-04-23 11:33 -12.45910 44.56996 36345 ft 441 kts 118°
2026-04-23 11:33 -12.47308 44.59800 36655 ft 440 kts 118°
2026-04-23 11:33 -12.48685 44.62566 36953 ft 440 kts 118°
2026-04-23 11:33 -12.50077 44.65361 37271 ft 440 kts 118°
2026-04-23 11:34 -12.51459 44.68134 37574 ft 439 kts 118°
2026-04-23 11:34 -12.52828 44.70882 37870 ft 438 kts 118°
2026-04-23 11:34 -12.54207 44.73655 38172 ft 437 kts 118°
2026-04-23 11:34 -12.55586 44.76426 38459 ft 436 kts 118°
2026-04-23 11:35 -12.56962 44.79192 38724 ft 435 kts 118°
2026-04-23 11:35 -12.58331 44.81947 38883 ft 436 kts 118°
2026-04-23 11:35 -12.59700 44.84700 38883 ft 437 kts 118°
2026-04-23 11:36 -12.62458 44.90256 38881 ft 437 kts 118°
2026-04-23 11:36 -12.65204 44.95790 38871 ft 437 kts 118°
2026-04-23 11:37 -12.67965 45.01360 38875 ft 437 kts 118°
2026-04-23 11:37 -12.70691 45.06867 38868 ft 437 kts 118°
2026-04-23 11:38 -12.73435 45.12426 38897 ft 437 kts 118°
2026-04-23 11:38 -12.76174 45.17978 38907 ft 438 kts 118°
2026-04-23 11:39 -12.78974 45.23544 38908 ft 438 kts 120°
2026-04-23 11:39 -12.82217 45.28814 38921 ft 437 kts 126°
2026-04-23 11:40 -12.85965 45.33680 38917 ft 436 kts 131°
2026-04-23 11:40 -12.89927 45.38372 38921 ft 435 kts 131°
2026-04-23 11:41 -12.93908 45.43081 38898 ft 435 kts 131°
2026-04-23 11:41 -12.97875 45.47783 38881 ft 436 kts 132°
2026-04-23 11:42 -13.01826 45.52470 38879 ft 436 kts 132°
2026-04-23 11:42 -13.05794 45.57182 38873 ft 435 kts 131°
2026-04-23 11:43 -13.09731 45.61859 38872 ft 435 kts 131°
2026-04-23 11:43 -13.13696 45.66573 38872 ft 436 kts 131°
2026-04-23 11:44 -13.17644 45.71273 38871 ft 435 kts 131°
2026-04-23 11:44 -13.21596 45.75979 38873 ft 435 kts 131°
2026-04-23 11:45 -13.25558 45.80696 38867 ft 435 kts 131°
2026-04-23 11:45 -13.29509 45.85403 38859 ft 435 kts 131°
2026-04-23 11:46 -13.33442 45.90094 38862 ft 435 kts 131°
2026-04-23 11:46 -13.37377 45.94791 38860 ft 435 kts 131°
2026-04-23 11:47 -13.41335 45.99519 38852 ft 435 kts 131°
2026-04-23 11:47 -13.45265 46.04218 38863 ft 436 kts 131°
2026-04-23 11:48 -13.49215 46.08949 38860 ft 435 kts 131°
2026-04-23 11:48 -13.53139 46.13658 38856 ft 435 kts 131°
2026-04-23 11:49 -13.57079 46.18384 38834 ft 435 kts 131°
2026-04-23 11:49 -13.61044 46.23115 38852 ft 435 kts 132°
2026-04-23 11:50 -13.64987 46.27790 38846 ft 436 kts 132°
2026-04-23 11:50 -13.68955 46.32519 38859 ft 436 kts 131°
2026-04-23 11:51 -13.72911 46.37251 38855 ft 435 kts 131°
2026-04-23 11:51 -13.76833 46.41952 38831 ft 436 kts 131°
2026-04-23 11:52 -13.80791 46.46699 38867 ft 436 kts 131°
2026-04-23 11:52 -13.84734 46.51431 38840 ft 435 kts 131°
2026-04-23 11:53 -13.88660 46.56146 38841 ft 435 kts 131°
2026-04-23 11:53 -13.92606 46.60887 38856 ft 435 kts 132°
2026-04-23 11:54 -13.96543 46.65620 38850 ft 436 kts 131°
2026-04-23 11:54 -14.00499 46.70381 38857 ft 436 kts 131°
2026-04-23 11:55 -14.04426 46.75107 38879 ft 436 kts 131°
2026-04-23 11:55 -14.08357 46.79842 38874 ft 435 kts 131°
2026-04-23 11:56 -14.12294 46.84587 38865 ft 434 kts 131°
2026-04-23 11:56 -14.16197 46.89294 38878 ft 433 kts 131°
2026-04-23 11:57 -14.20117 46.94021 38850 ft 433 kts 131°
2026-04-23 11:57 -14.24019 46.98732 38857 ft 433 kts 131°
2026-04-23 11:58 -14.27946 47.03478 38868 ft 433 kts 131°
2026-04-23 11:58 -14.31848 47.08194 38851 ft 433 kts 131°
2026-04-23 11:59 -14.35751 47.12915 38850 ft 432 kts 131°
2026-04-23 11:59 -14.39658 47.17641 38850 ft 432 kts 131°
2026-04-23 12:00 -14.43555 47.22358 38841 ft 431 kts 131°
2026-04-23 12:00 -14.47411 47.27030 38833 ft 431 kts 131°
2026-04-23 12:01 -14.51303 47.31749 38838 ft 432 kts 131°
2026-04-23 12:01 -14.55209 47.36489 38846 ft 432 kts 132°
2026-04-23 12:02 -14.59090 47.41197 38830 ft 430 kts 132°
2026-04-23 12:02 -14.62947 47.45882 38827 ft 430 kts 132°
2026-04-23 12:03 -14.66816 47.50582 38837 ft 429 kts 132°
2026-04-23 12:03 -14.70666 47.55263 38842 ft 429 kts 132°
2026-04-23 12:04 -14.74537 47.59973 38830 ft 429 kts 132°
2026-04-23 12:04 -14.78406 47.64682 38875 ft 429 kts 132°
2026-04-23 12:05 -14.82259 47.69373 38859 ft 427 kts 131°
2026-04-23 12:05 -14.86095 47.74051 38869 ft 429 kts 131°
2026-04-23 12:06 -14.89961 47.78764 38860 ft 428 kts 131°
2026-04-23 12:06 -14.95721 47.85794 38876 ft 428 kts 131°
2026-04-23 12:07 -14.99566 47.90491 38864 ft 428 kts 131°
2026-04-23 12:07 -15.03415 47.95193 38857 ft 428 kts 131°
2026-04-23 12:08 -15.07258 47.99893 38858 ft 427 kts 131°
2026-04-23 12:08 -15.11078 48.04568 38870 ft 426 kts 131°
2026-04-23 12:09 -15.14910 48.09261 38864 ft 426 kts 131°
2026-04-23 12:09 -15.18749 48.13963 38893 ft 428 kts 131°
2026-04-23 12:10 -15.22581 48.18664 38891 ft 429 kts 131°
2026-04-23 12:10 -15.26422 48.23375 38927 ft 427 kts 131°
2026-04-23 12:11 -15.30260 48.28088 38907 ft 425 kts 131°
2026-04-23 12:11 -15.34090 48.32791 38960 ft 429 kts 131°
2026-04-23 12:12 -15.37925 48.37503 38952 ft 429 kts 131°
2026-04-23 12:12 -15.41755 48.42212 38954 ft 428 kts 131°
2026-04-23 12:13 -15.45578 48.46917 38982 ft 429 kts 131°
2026-04-23 12:13 -15.49443 48.51678 38984 ft 431 kts 131°
2026-04-23 12:14 -15.53294 48.56423 39043 ft 432 kts 131°
2026-04-23 12:14 -15.57156 48.61185 39011 ft 429 kts 131°
2026-04-23 12:15 -15.60969 48.65892 39021 ft 428 kts 131°
2026-04-23 12:15 -15.64792 48.70614 39040 ft 428 kts 131°
2026-04-23 12:16 -15.68625 48.75349 39037 ft 428 kts 131°
2026-04-23 12:16 -15.72455 48.80083 39040 ft 428 kts 131°
2026-04-23 12:17 -15.76265 48.84798 39034 ft 427 kts 131°
2026-04-23 12:17 -15.80074 48.89516 39035 ft 427 kts 131°
2026-04-23 12:18 -15.83885 48.94239 39037 ft 427 kts 131°
2026-04-23 12:18 -15.87711 48.98992 39050 ft 426 kts 131°
2026-04-23 12:19 -15.91502 49.03701 39042 ft 428 kts 131°
2026-04-23 12:19 -15.95322 49.08456 39053 ft 427 kts 131°
2026-04-23 12:20 -15.99123 49.13196 39048 ft 429 kts 131°
2026-04-23 12:20 -16.02959 49.17960 39056 ft 429 kts 131°
2026-04-23 12:21 -16.06785 49.22673 39058 ft 426 kts 131°
2026-04-23 12:21 -16.10589 49.27382 39049 ft 428 kts 131°
2026-04-23 12:22 -16.14415 49.32137 39053 ft 425 kts 131°
2026-04-23 12:22 -16.18208 49.36859 39032 ft 428 kts 131°
2026-04-23 12:23 -16.22042 49.41636 39024 ft 432 kts 131°
2026-04-23 12:23 -16.25879 49.46425 39018 ft 430 kts 131°
2026-04-23 12:24 -16.29703 49.51200 39002 ft 432 kts 131°
2026-04-23 12:24 -16.33545 49.56001 38999 ft 430 kts 131°
2026-04-23 12:25 -16.37403 49.60823 38997 ft 433 kts 131°
2026-04-23 12:25 -16.41249 49.65636 38992 ft 433 kts 130°
2026-04-23 12:26 -16.45098 49.70458 38993 ft 430 kts 130°
2026-04-23 12:26 -16.48926 49.75256 38994 ft 432 kts 130°
2026-04-23 12:27 -16.52773 49.80088 38974 ft 431 kts 130°
2026-04-23 12:27 -16.56618 49.84916 38964 ft 435 kts 130°
2026-04-23 12:28 -16.60485 49.89782 38960 ft 436 kts 130°
2026-04-23 12:28 -16.64305 49.94602 38952 ft 432 kts 130°
2026-04-23 12:29 -16.68156 49.99451 38923 ft 434 kts 130°
2026-04-23 12:29 -16.72012 50.04263 38958 ft 434 kts 130°
2026-04-23 12:30 -16.75886 50.09104 38923 ft 435 kts 130°
2026-04-23 12:30 -16.79768 50.13981 38961 ft 437 kts 130°
2026-04-23 12:31 -16.83650 50.18869 38948 ft 436 kts 130°
2026-04-23 12:31 -16.87487 50.23708 38951 ft 436 kts 130°
2026-04-23 12:32 -16.91359 50.28590 38919 ft 436 kts 130°
2026-04-23 12:32 -16.95218 50.33463 38929 ft 437 kts 130°
2026-04-23 12:33 -16.99115 50.38388 38944 ft 438 kts 130°
2026-04-23 12:33 -17.02988 50.43288 38962 ft 439 kts 130°
2026-04-23 12:34 -17.06856 50.48185 38964 ft 438 kts 130°
2026-04-23 12:34 -17.10721 50.53081 38922 ft 437 kts 130°
2026-04-23 12:35 -17.14626 50.58032 38954 ft 443 kts 129°
2026-04-23 12:35 -17.18564 50.63028 38942 ft 450 kts 129°
2026-04-23 12:36 -17.22577 50.68126 38943 ft 451 kts 129°
2026-04-23 12:36 -17.26550 50.73175 38934 ft 451 kts 129°
2026-04-23 12:37 -17.30543 50.78258 38956 ft 452 kts 129°
2026-04-23 12:37 -17.34515 50.83321 38926 ft 452 kts 129°
2026-04-23 12:38 -17.38508 50.88424 38969 ft 452 kts 129°
2026-04-23 12:38 -17.42484 50.93510 38947 ft 450 kts 129°
2026-04-23 12:39 -17.46463 50.98577 38946 ft 451 kts 130°
2026-04-23 12:39 -17.50469 51.03636 38969 ft 451 kts 130°
2026-04-23 12:40 -17.54449 51.08692 38922 ft 450 kts 129°
2026-04-23 12:40 -17.58433 51.13775 38946 ft 451 kts 129°
2026-04-23 12:41 -17.62416 51.18866 38961 ft 452 kts 129°
2026-04-23 12:41 -17.66375 51.23934 38947 ft 448 kts 129°
2026-04-23 12:42 -17.70324 51.28994 38931 ft 450 kts 129°
2026-04-23 12:42 -17.74282 51.34068 38910 ft 452 kts 129°
2026-04-23 12:43 -17.78270 51.39186 38934 ft 454 kts 129°
2026-04-23 12:43 -17.82239 51.44282 38904 ft 451 kts 129°
2026-04-23 12:44 -17.86240 51.49426 38964 ft 454 kts 129°
2026-04-23 12:44 -17.90194 51.54512 38918 ft 450 kts 129°
2026-04-23 12:45 -17.94178 51.59641 38897 ft 451 kts 129°
2026-04-23 12:45 -17.98148 51.64754 38955 ft 453 kts 129°
2026-04-23 12:46 -18.02136 51.69896 38935 ft 453 kts 129°
2026-04-23 12:46 -18.06105 51.75015 38924 ft 454 kts 129°
2026-04-23 12:47 -18.10086 51.80156 38921 ft 454 kts 129°
2026-04-23 12:47 -18.14065 51.85298 38926 ft 454 kts 129°
2026-04-23 12:48 -18.18063 51.90473 38919 ft 456 kts 129°
2026-04-23 12:48 -18.22057 51.95643 38924 ft 454 kts 129°
2026-04-23 12:49 -18.26037 52.00798 38932 ft 454 kts 129°
2026-04-23 12:49 -18.30019 52.05959 38944 ft 455 kts 129°
2026-04-23 12:50 -18.34002 52.11125 38917 ft 455 kts 129°
2026-04-23 12:50 -18.37975 52.16288 38915 ft 455 kts 129°
2026-04-23 12:51 -18.41949 52.21453 38959 ft 454 kts 129°
2026-04-23 12:51 -18.45927 52.26626 38932 ft 454 kts 129°
2026-04-23 12:52 -18.49891 52.31789 38918 ft 453 kts 129°
2026-04-23 12:52 -18.53867 52.36966 38913 ft 454 kts 129°
2026-04-23 12:53 -18.57804 52.42102 38925 ft 453 kts 129°
2026-04-23 12:53 -18.61764 52.47269 38945 ft 452 kts 129°
2026-04-23 12:54 -18.65742 52.52464 38927 ft 453 kts 129°
2026-04-23 12:54 -18.69678 52.57611 38925 ft 453 kts 129°
2026-04-23 12:55 -18.73650 52.62809 38952 ft 454 kts 130°
2026-04-23 12:55 -18.77593 52.67972 38941 ft 454 kts 129°
2026-04-23 12:56 -18.81545 52.73151 38953 ft 455 kts 129°
2026-04-23 12:56 -18.85519 52.78364 38950 ft 454 kts 129°
2026-04-23 12:57 -18.89459 52.83534 38955 ft 455 kts 129°
2026-04-23 12:57 -18.93415 52.88734 38942 ft 454 kts 129°
2026-04-23 12:58 -18.97382 52.93952 38963 ft 454 kts 129°
2026-04-23 12:58 -19.01320 52.99136 38935 ft 454 kts 129°
2026-04-23 12:59 -19.05281 53.04356 38976 ft 454 kts 129°
2026-04-23 12:59 -19.09235 53.09571 38970 ft 455 kts 129°
2026-04-23 13:00 -19.13199 53.14805 38936 ft 456 kts 129°
2026-04-23 13:00 -19.17151 53.20030 38978 ft 454 kts 129°
2026-04-23 13:01 -19.21084 53.25235 38933 ft 455 kts 129°
2026-04-23 13:01 -19.25015 53.30451 38971 ft 454 kts 129°
2026-04-23 13:02 -19.28933 53.35663 38956 ft 454 kts 129°
2026-04-23 13:02 -19.32887 53.40915 38972 ft 455 kts 129°
2026-04-23 13:03 -19.36816 53.46091 38958 ft 454 kts 129°
2026-04-23 13:03 -19.40786 53.51322 38951 ft 453 kts 129°
2026-04-23 13:04 -19.44716 53.56529 38969 ft 454 kts 129°
2026-04-23 13:04 -19.48650 53.61758 38953 ft 454 kts 129°
2026-04-23 13:05 -19.52566 53.66971 38940 ft 453 kts 129°
2026-04-23 13:05 -19.56516 53.72231 38953 ft 454 kts 129°
2026-04-23 13:06 -19.62388 53.80066 38925 ft 454 kts 128°
2026-04-23 13:07 -19.66321 53.85324 38961 ft 455 kts 129°
2026-04-23 13:07 -19.70242 53.90564 38953 ft 455 kts 128°
2026-04-23 13:08 -19.74163 53.95820 38967 ft 456 kts 129°
2026-04-23 13:08 -19.78088 54.01081 38961 ft 456 kts 128°
2026-04-23 13:09 -19.82026 54.06383 38958 ft 455 kts 129°
2026-04-23 13:09 -19.85934 54.11645 38961 ft 454 kts 129°
2026-04-23 13:10 -19.89804 54.16947 38954 ft 454 kts 126°
2026-04-23 13:10 -19.93038 54.22712 38964 ft 455 kts 116°
2026-04-23 13:11 -19.95349 54.28968 38970 ft 456 kts 107°
2026-04-23 13:11 -19.96695 54.35519 38961 ft 457 kts 99°
2026-04-23 13:12 -19.97642 54.42202 38965 ft 457 kts 99°
2026-04-23 13:12 -19.98591 54.48881 38958 ft 457 kts 98°
2026-04-23 13:13 -19.99553 54.55547 38961 ft 458 kts 98°
2026-04-23 13:13 -20.00512 54.62194 38963 ft 457 kts 99°
2026-04-23 13:14 -20.01514 54.68911 38387 ft 462 kts 98°
2026-04-23 13:14 -20.02009 54.72261 37724 ft 460 kts 98°
2026-04-23 13:14 -20.02496 54.75598 37242 ft 461 kts 98°
2026-04-23 13:14 -20.02985 54.78965 36960 ft 461 kts 98°
2026-04-23 13:15 -20.03471 54.82329 36952 ft 461 kts 98°
2026-04-23 13:15 -20.04437 54.89051 36961 ft 462 kts 98°
2026-04-23 13:16 -20.05398 54.95768 36952 ft 461 kts 98°
2026-04-23 13:16 -20.06353 55.02516 36954 ft 463 kts 98°
2026-04-23 13:17 -20.07314 55.09301 36952 ft 462 kts 98°
2026-04-23 13:17 -20.08290 55.16043 36952 ft 463 kts 98°
2026-04-23 13:18 -20.09267 55.22792 36959 ft 463 kts 98°
2026-04-23 13:18 -20.10227 55.29556 36953 ft 463 kts 98°
2026-04-23 13:19 -20.11179 55.36346 36956 ft 463 kts 98°
2026-04-23 13:19 -20.12120 55.43085 36323 ft 464 kts 97°
2026-04-23 13:19 -20.12591 55.46459 35781 ft 463 kts 97°
2026-04-23 13:20 -20.13061 55.49827 35247 ft 464 kts 97°
2026-04-23 13:20 -20.13538 55.53247 34696 ft 465 kts 97°
2026-04-23 13:20 -20.14002 55.56641 34155 ft 464 kts 97°
2026-04-23 13:20 -20.14455 55.60014 33630 ft 465 kts 96°
2026-04-23 13:21 -20.14908 55.63425 33094 ft 468 kts 96°
2026-04-23 13:21 -20.15355 55.66824 32566 ft 462 kts 96°
2026-04-23 13:21 -20.15795 55.70191 32096 ft 455 kts 96°
2026-04-23 13:21 -20.16222 55.73472 31644 ft 452 kts 96°
2026-04-23 13:22 -20.16652 55.76794 31176 ft 450 kts 96°
2026-04-23 13:22 -20.17075 55.80063 30720 ft 447 kts 96°
2026-04-23 13:22 -20.17494 55.83312 30256 ft 445 kts 96°
2026-04-23 13:22 -20.17909 55.86542 29796 ft 441 kts 96°
2026-04-23 13:23 -20.18325 55.89767 29339 ft 440 kts 96°
2026-04-23 13:23 -20.18736 55.92998 28854 ft 437 kts 96°
2026-04-23 13:23 -20.19143 55.96175 28369 ft 430 kts 96°
2026-04-23 13:23 -20.19547 55.99301 27888 ft 425 kts 96°
2026-04-23 13:24 -20.19881 56.02385 27412 ft 423 kts 94°
2026-04-23 13:24 -20.20074 56.05482 26931 ft 421 kts 91°
2026-04-23 13:24 -20.20127 56.08594 26442 ft 419 kts 89°
2026-04-23 13:24 -20.20138 56.11675 25957 ft 415 kts 88°
2026-04-23 13:25 -20.20141 56.14732 25474 ft 411 kts 88°
2026-04-23 13:25 -20.20143 56.17747 24989 ft 408 kts 88°
2026-04-23 13:25 -20.20145 56.20739 24508 ft 405 kts 89°
2026-04-23 13:25 -20.20147 56.23716 24024 ft 401 kts 88°
2026-04-23 13:26 -20.20149 56.26654 23542 ft 397 kts 89°
2026-04-23 13:26 -20.20153 56.29539 23054 ft 393 kts 88°
2026-04-23 13:26 -20.20155 56.32448 22562 ft 390 kts 89°
2026-04-23 13:26 -20.20156 56.35309 22089 ft 388 kts 89°
2026-04-23 13:27 -20.20157 56.38187 21655 ft 386 kts 89°
2026-04-23 13:27 -20.20155 56.40984 21225 ft 382 kts 89°
2026-04-23 13:27 -20.20155 56.43803 20785 ft 379 kts 89°
2026-04-23 13:27 -20.20156 56.46588 20346 ft 376 kts 89°
2026-04-23 13:28 -20.20156 56.49365 19909 ft 374 kts 89°
2026-04-23 13:28 -20.20154 56.52094 19475 ft 371 kts 89°
2026-04-23 13:28 -20.20151 56.54837 19037 ft 368 kts 89°
2026-04-23 13:28 -20.20148 56.57526 18607 ft 365 kts 89°
2026-04-23 13:29 -20.20144 56.60222 18169 ft 363 kts 89°
2026-04-23 13:29 -20.20139 56.62907 17731 ft 360 kts 89°
2026-04-23 13:29 -20.20133 56.65552 17295 ft 358 kts 89°
2026-04-23 13:29 -20.20128 56.68176 16860 ft 355 kts 89°
2026-04-23 13:30 -20.20123 56.70775 16428 ft 353 kts 89°
2026-04-23 13:30 -20.20119 56.73372 15989 ft 351 kts 89°
2026-04-23 13:30 -20.20120 56.75980 15553 ft 348 kts 89°
2026-04-23 13:30 -20.20124 56.78528 15121 ft 346 kts 89°
2026-04-23 13:31 -20.20125 56.81073 14689 ft 344 kts 89°
2026-04-23 13:31 -20.20124 56.83602 14258 ft 342 kts 89°
2026-04-23 13:31 -20.20121 56.86137 13818 ft 339 kts 89°
2026-04-23 13:31 -20.20117 56.88615 13387 ft 337 kts 89°
2026-04-23 13:32 -20.20110 56.91091 12958 ft 335 kts 89°
2026-04-23 13:32 -20.20104 56.93576 12523 ft 333 kts 90°
2026-04-23 13:32 -20.20097 56.96009 12093 ft 330 kts 90°
2026-04-23 13:32 -20.20090 56.98424 11663 ft 327 kts 90°
2026-04-23 13:33 -20.20083 57.00847 11230 ft 325 kts 90°
2026-04-23 13:33 -20.20075 57.03228 10803 ft 322 kts 90°
2026-04-23 13:33 -20.20067 57.05600 10370 ft 318 kts 90°
2026-04-23 13:33 -20.20057 57.07938 9936 ft 315 kts 90°
2026-04-23 13:34 -20.20047 57.10237 9508 ft 313 kts 90°
2026-04-23 13:34 -20.20037 57.12548 9074 ft 310 kts 90°
2026-04-23 13:34 -20.20026 57.14823 8648 ft 309 kts 90°
2026-04-23 13:34 -20.20016 57.17084 8218 ft 306 kts 90°
2026-04-23 13:35 -20.20005 57.19337 7783 ft 303 kts 90°
2026-04-23 13:35 -20.19995 57.21593 7348 ft 301 kts 90°
2026-04-23 13:35 -20.19985 57.23774 6915 ft 292 kts 90°
2026-04-23 13:35 -20.19976 57.25896 6480 ft 281 kts 90°
2026-04-23 13:36 -20.20253 57.27902 6038 ft 272 kts 109°
2026-04-23 13:36 -20.21143 57.29634 5613 ft 265 kts 123°
2026-04-23 13:36 -20.22198 57.31204 5261 ft 253 kts 124°
2026-04-23 13:36 -20.23187 57.32658 5117 ft 235 kts 123°
2026-04-23 13:37 -20.24115 57.34035 4974 ft 219 kts 123°
2026-04-23 13:37 -20.24956 57.35292 4937 ft 199 kts 123°
2026-04-23 13:37 -20.25719 57.36436 4833 ft 183 kts 122°
2026-04-23 13:37 -20.26454 57.37546 4723 ft 181 kts 122°
2026-04-23 13:38 -20.27168 57.38623 4613 ft 173 kts 122°
2026-04-23 13:38 -20.27822 57.39607 4489 ft 158 kts 122°
2026-04-23 13:38 -20.28459 57.40570 4343 ft 157 kts 122°
2026-04-23 13:38 -20.29079 57.41508 4216 ft 155 kts 122°
2026-04-23 13:39 -20.29705 57.42455 4094 ft 155 kts 122°
2026-04-23 13:39 -20.30330 57.43400 3977 ft 156 kts 122°
2026-04-23 13:39 -20.30954 57.44340 3858 ft 155 kts 122°
2026-04-23 13:39 -20.31556 57.45245 3718 ft 143 kts 121°
2026-04-23 13:40 -20.32107 57.46072 3559 ft 131 kts 121°
2026-04-23 13:40 -20.32610 57.46883 3503 ft 129 kts 117°
2026-04-23 13:40 -20.33066 57.47709 3500 ft 130 kts 116°
2026-04-23 13:40 -20.33510 57.48559 3499 ft 130 kts 116°
2026-04-23 13:41 -20.33934 57.49401 3501 ft 128 kts 114°
2026-04-23 13:41 -20.34352 57.50248 3503 ft 128 kts 114°
2026-04-23 13:41 -20.34758 57.51091 3499 ft 128 kts 114°
2026-04-23 13:41 -20.35159 57.51928 3493 ft 128 kts 114°
2026-04-23 13:42 -20.35567 57.52789 3428 ft 129 kts 114°
2026-04-23 13:42 -20.35967 57.53633 3246 ft 128 kts 113°
2026-04-23 13:42 -20.36368 57.54478 3060 ft 128 kts 114°
2026-04-23 13:42 -20.36772 57.55328 2872 ft 127 kts 113°
2026-04-23 13:43 -20.37168 57.56160 2668 ft 126 kts 114°
2026-04-23 13:43 -20.37567 57.56997 2493 ft 127 kts 114°
2026-04-23 13:43 -20.37969 57.57838 2309 ft 127 kts 114°
2026-04-23 13:43 -20.38370 57.58676 2119 ft 126 kts 114°
2026-04-23 13:44 -20.38766 57.59500 1935 ft 125 kts 114°
2026-04-23 13:44 -20.39156 57.60315 1749 ft 120 kts 114°
2026-04-23 13:44 -20.39532 57.61097 1583 ft 119 kts 114°
2026-04-23 13:44 -20.39910 57.61883 1411 ft 119 kts 115°
2026-04-23 13:45 -20.40266 57.62685 1223 ft 120 kts 108°
2026-04-23 13:45 -20.40638 57.63498 1031 ft 123 kts 117°
2026-04-23 13:45 -20.41054 57.64301 847 ft 124 kts 115°
2026-04-23 13:45 -20.41465 57.65119 654 ft 128 kts 114°
2026-04-23 13:46 -20.41874 57.65966 485 ft 128 kts 115°
2026-04-23 13:46 -20.42274 57.66805 311 ft 129 kts 114°
2026-04-23 13:46 -20.42681 57.67664 192 ft 119 kts 117°
2026-04-23 13:46 -20.42967 57.68240 171 ft 43 kts 119°
2026-04-23 13:47 -20.43055 57.68423 164 ft 20 kts 117°
2026-04-23 13:47 -20.43128 57.68456 163 ft 12 kts 200°
2026-04-23 13:47 -20.43202 57.68417 165 ft 11 kts 207°
2026-04-23 13:47 -20.43268 57.68380 167 ft 9 kts 217°
2026-04-23 13:48 -20.43287 57.68318 169 ft 9 kts 290°
2026-04-23 13:48 -20.43254 57.68251 171 ft 10 kts 297°
2026-04-23 13:48 -20.43219 57.68177 173 ft 10 kts 297°
2026-04-23 13:48 -20.43183 57.68105 175 ft 12 kts 297°
2026-04-23 13:49 -20.43141 57.68014 178 ft 13 kts 296°
2026-04-23 13:49 -20.43105 57.67939 182 ft 9 kts 296°
2026-04-23 13:49 -20.43077 57.67880 186 ft 8 kts 296°
2026-04-23 13:49 -20.43058 57.67821 187 ft 9 kts 259°
2026-04-23 13:50 -20.43102 57.67778 189 ft 8 kts 207°
2026-04-23 13:50 -20.43128 57.67764 192 ft 0 kts 207°